| time (UTC) | temp F | wind direction | speed knots | gust knots | rain 1hr in | rain 24hr in | rain mn in | humidity % | barometer mb |
| 20260506203037 | 54 | 360 | 3.5 | 7.8 | 0.00 | 0.00 | 0.00 | 55 | 1016.1 |
| 20260506201539 | 54 | 38 | 1.7 | 8.7 | 0.00 | 0.00 | 0.00 | 57 | 1016.0 |
| 20260506200036 | 54 | 360 | 1.7 | 4.3 | 0.00 | 0.00 | 0.00 | 58 | 1015.9 |
| 20260506194532 | 54 | 23 | 2.6 | 7.0 | 0.00 | 0.00 | 0.00 | 58 | 1015.7 |
| 20260506193031 | 54 | 360 | 2.6 | 7.0 | 0.00 | 0.00 | 0.00 | 58 | 1015.6 |
| 20260506191527 | 55 | 360 | 1.7 | 4.3 | 0.00 | 0.00 | 0.00 | 58 | 1015.4 |
| 20260506190029 | 55 | 360 | 1.7 | 5.2 | 0.00 | 0.00 | 0.00 | 58 | 1015.3 |
| 20260506184525 | 55 | 360 | 1.7 | 7.0 | 0.00 | 0.00 | 0.00 | 58 | 1015.2 |
| 20260506183023 | 55 | 360 | 2.6 | 7.0 | 0.00 | 0.00 | 0.00 | 58 | 1015.1 |
| 20260506181519 | 55 | 54 | 1.7 | 5.2 | 0.00 | 0.00 | 0.00 | 58 | 1014.8 |
| 20260506180022 | 55 | 360 | 3.5 | 8.7 | 0.00 | 0.00 | 0.00 | 58 | 1014.7 |
| 20260506174523 | 55 | 360 | 3.5 | 8.7 | 0.00 | 0.00 | 0.00 | 57 | 1014.4 |
| 20260506173015 | 55 | 46 | 4.3 | 9.6 | 0.00 | 0.00 | 0.00 | 57 | 1014.1 |
| 20260506171525 | 56 | 23 | 5.2 | 10.4 | 0.00 | 0.00 | 0.00 | 55 | 1013.9 |
| 20260506170012 | 58 | 360 | 7.0 | 11.3 | 0.00 | 0.00 | 0.00 | 54 | 1013.9 |
| 20260506164510 | 59 | 360 | 7.0 | 13.0 | 0.00 | 0.00 | 0.00 | 54 | 1013.7 |
| 20260506163009 | 58 | 360 | 5.2 | 12.2 | 0.00 | 0.00 | 0.00 | 54 | 1013.6 |
| 20260506161509 | 58 | 360 | 4.3 | 11.3 | 0.00 | 0.00 | 0.00 | 54 | 1013.7 |
| 20260506160008 | 58 | 360 | 5.2 | 12.2 | 0.00 | 0.00 | 0.00 | 52 | 1013.7 |
| 20260506154512 | 59 | 360 | 5.2 | 13.9 | 0.00 | 0.00 | 0.00 | 52 | 1013.7 |
| 20260506153010 | 60 | 360 | 7.0 | 14.8 | 0.00 | 0.00 | 0.00 | 51 | 1013.6 |
| 20260506151509 | 60 | 360 | 6.1 | 13.9 | 0.00 | 0.00 | 0.00 | 51 | 1013.5 |
| 20260506150008 | 60 | 360 | 7.0 | 15.6 | 0.00 | 0.00 | 0.00 | 51 | 1013.5 |
| 20260506144507 | 60 | 360 | 6.1 | 13.0 | 0.00 | 0.00 | 0.00 | 53 | 1013.4 |
| 20260506143007 | 60 | 324 | 6.1 | 15.6 | 0.00 | 0.00 | 0.00 | 52 | 1013.3 |
| 20260506141506 | 59 | 360 | 6.1 | 11.3 | 0.00 | 0.00 | 0.00 | 50 | 1013.5 |
| 20260506140013 | 60 | 360 | 5.2 | 14.8 | 0.00 | 0.00 | 0.00 | 52 | 1013.5 |
| 20260506134503 | 60 | 360 | 3.5 | 13.0 | 0.00 | 0.00 | 0.00 | 53 | 1013.4 |
| 20260506133002 | 60 | 360 | 5.2 | 12.2 | 0.00 | 0.00 | 0.00 | 51 | 1013.4 |
| 20260506131617 | 60 | 30 | 3.5 | 12.2 | 0.00 | 0.00 | 0.00 | 50 | 1013.4 |
| 20260506130059 | 59 | 360 | 5.2 | 13.0 | 0.00 | 0.00 | 0.00 | 51 | 1013.3 |
| 20260506124559 | 58 | 54 | 6.1 | 13.0 | 0.00 | 0.00 | 0.00 | 52 | 1013.2 |
| 20260506123058 | 58 | 360 | 5.2 | 13.0 | 0.00 | 0.00 | 0.00 | 52 | 1013.1 |
| 20260506121600 | 59 | 38 | 4.3 | 11.3 | 0.00 | 0.00 | 0.00 | 53 | 1013.1 |
| 20260506120101 | 58 | 360 | 4.3 | 12.2 | 0.00 | 0.00 | 0.00 | 54 | 1013.1 |
| 20260506114557 | 59 | 360 | 4.3 | 13.0 | 0.00 | 0.00 | 0.00 | 57 | 1013.0 |
| 20260506113053 | 58 | 50 | 4.3 | 12.2 | 0.00 | 0.00 | 0.00 | 57 | 1013.0 |
| 20260506111551 | 58 | 360 | 5.2 | 14.8 | 0.00 | 0.00 | 0.00 | 56 | 1013.0 |
| 20260506110050 | 58 | 360 | 2.6 | 11.3 | 0.00 | 0.00 | 0.00 | 55 | 1013.0 |
| 20260506104554 | 57 | 360 | 3.5 | 10.4 | 0.00 | 0.00 | 0.00 | 56 | 1012.9 |
| 20260506103052 | 57 | 54 | 4.3 | 10.4 | 0.00 | 0.00 | 0.00 | 56 | 1012.9 |
| 20260506101545 | 56 | 335 | 3.5 | 9.6 | 0.00 | 0.00 | 0.00 | 57 | 1012.9 |
| 20260506100053 | 55 | 360 | 3.5 | 9.6 | 0.00 | 0.00 | 0.00 | 58 | 1012.8 |
| 20260506094543 | 55 | 22 | 3.5 | 11.3 | 0.00 | 0.00 | 0.00 | 60 | 1012.8 |
| 20260506093043 | 55 | 360 | 4.3 | 8.7 | 0.00 | 0.00 | 0.00 | 59 | 1012.8 |
| 20260506091545 | 56 | 350 | 4.3 | 10.4 | 0.00 | 0.00 | 0.00 | 58 | 1012.8 |
| 20260506090041 | 55 | 360 | 3.5 | 9.6 | 0.00 | 0.00 | 0.00 | 59 | 1012.7 |
| 20260506084540 | 55 | 35 | 5.2 | 12.2 | 0.00 | 0.00 | 0.00 | 60 | 1012.7 |
| 20260506083034 | 54 | 36 | 6.1 | 13.0 | 0.00 | 0.00 | 0.00 | 61 | 1012.5 |
| 20260506081534 | 54 | 360 | 6.1 | 13.0 | 0.00 | 0.00 | 0.00 | 61 | 1012.5 |
| 20260506073026 | 52 | 360 | 3.5 | 10.4 | 0.00 | 0.00 | 0.00 | 64 | 1012.6 |
| 20260506071522 | 52 | 29 | 4.3 | 11.3 | 0.00 | 0.00 | 0.00 | 64 | 1012.4 |
| 20260506061512 | 50 | 360 | 2.6 | 8.7 | 0.00 | 0.00 | 0.00 | 67 | 1012.4 |
| 20260506044524 | 51 | 360 | 5.2 | 10.4 | 0.00 | 0.00 | 0.00 | 64 | 1012.5 |
| 20260506043010 | 51 | 360 | 4.3 | 8.7 | 0.00 | 0.00 | 0.00 | 63 | 1012.5 |
| 20260506041509 | 51 | 42 | 3.5 | 9.6 | 0.00 | 0.00 | 0.00 | 63 | 1012.4 |
| 20260506040008 | 51 | 360 | 3.5 | 13.0 | 0.00 | 0.00 | 0.00 | 63 | 1012.4 |
| 20260506034504 | 50 | 350 | 6.1 | 11.3 | 0.00 | 0.00 | 0.00 | 62 | 1012.4 |
| 20260506033001 | 50 | 360 | 5.2 | 12.2 | 0.00 | 0.00 | 0.00 | 61 | 1012.6 |
| 20260506031602 | 50 | 360 | 3.5 | 8.7 | 0.00 | 0.00 | 0.00 | 62 | 1012.7 |
| 20260506030107 | 50 | 360 | 3.5 | 8.7 | 0.00 | 0.00 | 0.00 | 63 | 1012.8 |
| 20260506024534 | 49 | 360 | 2.6 | 8.7 | 0.00 | 0.00 | 0.00 | 63 | 1013.0 |
| 20260506023028 | 49 | 44 | 3.5 | 8.7 | 0.00 | 0.00 | 0.00 | 63 | 1013.0 |
| 20260506021545 | 49 | 360 | 3.5 | 7.8 | 0.00 | 0.00 | 0.00 | 63 | 1013.2 |
| 20260506020041 | 49 | 360 | 3.5 | 8.7 | 0.00 | 0.00 | 0.00 | 63 | 1013.2 |
| 20260506014553 | 49 | 20 | 2.6 | 8.7 | 0.00 | 0.00 | 0.00 | 63 | 1013.3 |
| 20260506013042 | 48 | 31 | 3.5 | 7.8 | 0.00 | 0.00 | 0.00 | 64 | 1013.4 |
| 20260506011540 | 48 | 360 | 3.5 | 7.0 | 0.00 | 0.00 | 0.00 | 64 | 1013.3 |
| 20260506010041 | 0 | 0.0 | 0.0 | 0.00 | 0.00 | 0.00 | 1013.4 | ||
| 20260506004544 | 0 | 0.0 | 0.0 | 0.00 | 0.00 | 0.00 | 1013.4 | ||
| 20260506003033 | 0 | 0.0 | 0.0 | 0.00 | 0.00 | 0.00 | 1013.6 | ||
| 20260506001523 | 48 | 35 | 2.6 | 7.8 | 0.00 | 0.00 | 0.00 | 62 | 1013.7 |
| 20260506000025 | 48 | 32 | 4.3 | 9.6 | 0.00 | 0.00 | 0.00 | 62 | 1013.8 |
| 20260505234523 | 48 | 360 | 3.5 | 10.4 | 0.00 | 0.00 | 0.00 | 63 | 1013.8 |
| 20260505233024 | 48 | 53 | 3.5 | 8.7 | 0.00 | 0.00 | 0.00 | 62 | 1013.9 |
| 20260505231528 | 48 | 360 | 3.5 | 7.8 | 0.00 | 0.00 | 0.00 | 62 | 1014.1 |
| 20260505230039 | 48 | 36 | 2.6 | 7.8 | 0.00 | 0.00 | 0.00 | 62 | 1014.2 |
| 20260505224532 | 49 | 53 | 3.5 | 9.6 | 0.00 | 0.00 | 0.00 | 62 | 1014.2 |
| 20260505223023 | 49 | 31 | 2.6 | 7.0 | 0.00 | 0.00 | 0.00 | 62 | 1014.3 |
| 20260505221519 | 49 | 32 | 3.5 | 8.7 | 0.00 | 0.00 | 0.00 | 61 | 1014.3 |
| 20260505220016 | 50 | 360 | 4.3 | 10.4 | 0.00 | 0.00 | 0.00 | 61 | 1014.3 |
| 20260505214516 | 50 | 360 | 4.3 | 9.6 | 0.00 | 0.00 | 0.00 | 61 | 1014.5 |
| 20260505213015 | 50 | 50 | 3.5 | 10.4 | 0.00 | 0.00 | 0.00 | 60 | 1014.5 |
| 20260505211514 | 51 | 360 | 3.5 | 7.8 | 0.00 | 0.00 | 0.00 | 60 | 1014.5 |
| 20260505210014 | 51 | 360 | 5.2 | 10.4 | 0.00 | 0.00 | 0.00 | 60 | 1014.6 |
| 20260505204514 | 51 | 360 | 5.2 | 10.4 | 0.00 | 0.00 | 0.00 | 60 | 1014.6 |